Showing default

GONETS M 16 (M26), 44907

Orbit data source: Space-Track

GONETS M 16 (M26), 44907 is a payload satellite owned by Gonets (CIS) in LEO that was launched on Thu, 26 Dec 2019 UTC via an ROKOT launch vehicle from the Plesetsk Missile And Space Complex (PKMTR). Payload-class satellites include a variety of spacecraft equipped with specific instruments for various scientific and technological missions. These include communications satellites like Starlink; space stations such as the ISS; scientific satellites like the Hubble; Earth observation satellites from companies like Planet Labs, Umbra, and HawkEye 360; GPS; miniature CubeSats for education and research; and military/defense satellites.

Loading next visibility...
Identifier
44907, 2019-096C
Orbit
LEO
Last TLE update
8 hours ago
Origin
Manufacturer
Resehetnev ISS
Mission
Operational Commercial Communications
Bus & Motor
STRELA-3M, Unknown motor
Mass
225 kg wet, 225 kg dry
Launch date (UTC)
2019-12-26 (5 years ago)
Launch vehicle
ROKOT
Launch site
Plesetsk Missile And Space Complex (PKMTR)
Object type
Payload
Rocket body
Debris
Shape & HBR
Cyl + 1 Ant, 7 m
Radar Cross Section
1.798 m², Large (>1 m²)

Expand to show TLE details & history

TLE from 8 hours ago
0 GONETS M 16 (M26)
1 44907U 19096C   25128.92336921  .00000050  00000-0  29086-3 0  9995
2 44907  82.5201 334.7816 0011756  23.0512 337.1093 12.42852863243410
Epoch: 2025-05-08T22:09Z
Definitive object data (Epoch: 2025-05-08T22:09:39.099Z)
Latitude
-0.00003°
Longitude
135.38178°
Altitude
1,488.707 km
Speed
7.123 km/s
True Right ascension
22h 19m 07s
True Declination
0° 00' 00"
Sunlit
Object was in daylight at TLE epoch
Visualization TLE readout
Latitude
40.31338°
Longitude
141.54108°
Altitude
1,491.373 km
Speed
7.126 km/s
Apparent Right ascension
00h 17m 52s
Apparent Declination
5° 49' 50"
Sunlit
Object is in daylight
Visualization observer readout
Local Sidereal Time
14:15:07
Azimuth
37.509° NE
Elevation
-36.88°
Doppler factor
1
Orbital elements
Apogee altitude
1,501.135 km
Perigee altitude
1,482.631 km
Semi-major axis
7,870.02 km
Eccentricity
0.0011756
Inclination
82.5201°
RAAN
334.7816°
Arg. of periapsis
23.0512°
True anomaly
337.05683°
Mean anomaly
337.1093°
Eccentric anomaly
337.08307°
Mean motion
3.1087 °/min
BSTAR
0.00029086
Orbital period
115.8 mins
Loading maneuver chart data...
Loading SW <> Apogee altitude chart data...
Loading historical data...
Loading historical data...
Loading historical data...
Loading historical data...
Loading historical data...
Loading historical data...
Loading historical data...
Other satellites on launch #96 in the year 2019 (2019-12-26 UTC)

GONETS M 16 (M26) Visibility forecast

Observer location: undefined°, undefined°

Span
Click to sort rows by Start time (UTC) header in descending order
Start Az.
Max El. time (UTC)
Max El. Az.
Max El.
End time (UTC)
End Az.
15 mins2025-05-09 13:42:21.157Z159.95° S2025-05-09 13:49:21.157Z98.878° ESE37.882°2025-05-09 13:57:21.157Z18.887° NNE
14 mins2025-05-09 15:40:21.157Z231.276° WSW2025-05-09 15:47:21.157Z295.279° NW29.034°2025-05-09 15:54:21.157Z350.771° N
12 mins2025-05-09 23:54:21.157Z21.579° NNE2025-05-10 00:00:21.157Z71.217° E22.294°2025-05-10 00:06:21.157Z116.441° SE
15 mins2025-05-10 01:50:21.157Z346.822° N2025-05-10 01:57:21.157Z273.914° WNW43.543°2025-05-10 02:05:21.157Z185.526° SSW
4 mins2025-05-10 03:51:21.157Z294.931° NW2025-05-10 03:52:21.157Z287.877° WNW11.762°2025-05-10 03:55:21.157Z267.142° W
|